ARIRANG-3 (KOMPSAT-3) (38338 NORAD) Tracking and Keplerian Element Data

This shows tracking and keplerian element data for the satellite.

Feedback or suggestion? Click here.




ElementValue
Catalog38338
NameARIRANG-3 (KOMPSAT-3)
Epoch Orbit67867
Epoch Day35.17874095
Epoch Year2025
RAAN348.1439
Inclination98.2905
Eccentricity0.0006129
Argument of Perigee215.4343
Mean Anonmoly144.6451
Mean Motion14.62176245
Decay Rate1.377E-05
L11 38338U 12025B 25035.17874095 .00001377 00000+0 28306-3 0 9990
L22 38338 98.2905 348.1439 0006129 215.4343 144.6451 14.62176245678679



Live tracking and technical data element details for ARIRANG-3 (KOMPSAT-3) (NORAD 38338). ARIRANG-3 (KOMPSAT-3) can be tracked NOW for your location showing map with azimuth and elevation plus other details from your city location.







IsCatalogInMostPopularTable: catalog: 38338, numindb: 292
Update: records affected: 1



GetName: 38338 ARIRANG-3 (KOMPSAT-3)

Hit Count: updated at: Thu, 15 May 2025 11:03:22 GMT